GW2040 Weather Reports


time (UTC)temp
C
wind
direction
speed
KPH
gust
KPH
rain 1hr
cm
rain 24hr
cm
rain mn
cm
humidity
%
barometer
mb
20260503173938 15 250 4.8 9.7 0.00 0.00 0.00 70 1014.0
20260503171924 16 251 6.4 9.7 0.00 0.00 0.00 70 1013.5
20260503171325 15 212 4.8 4.8 0.00 0.00 0.00 70 1013.6
20260503170820 15 255 6.4 11.3 0.00 0.00 0.00 70 1013.6
20260503150821 13 215 1.6 1.6 0.00 0.00 0.00 75 1013.4
20260503110420 13 277 3.2 6.4 0.00 0.00 0.00 74 1011.9
20260503081024 13 291 4.8 9.7 0.00 0.00 0.00 75 1012.5
20260503071626 13 311 3.2 6.4 0.00 0.00 0.00 75 1012.7
20260503053920 13 296 4.8 4.8 0.00 0.00 0.00 74 1013.1
20260503051840 13 283 4.8 9.7 0.00 0.00 0.00 74 1013.4
20260503050826 13 302 8.0 20.9 0.00 0.00 0.00 74 1013.3
20260503044823 13 300 8.0 12.9 0.00 0.00 0.00 75 1013.1
20260503043424 13 314 11.3 20.9 0.00 0.00 0.00 74 1013.1
20260503041420 13 303 8.0 12.9 0.00 0.00 0.00 74 1012.8
20260503035428 13 312 11.3 16.1 0.00 0.00 0.00 74 1012.6
20260503033423 14 305 8.0 12.9 0.00 0.00 0.00 73 1012.3
20260503031724 14 300 16.1 25.7 0.00 0.00 0.00 72 1012.4
20260503025725 14 309 4.8 12.9 0.00 0.00 0.00 72 1012.2
20260503023724 14 334 9.7 14.5 0.00 0.00 0.00 71 1011.8
20260503021726 15 306 6.4 11.3 0.00 0.00 0.00 71 1011.8
20260503020733 15 296 14.5 24.1 0.00 0.00 0.00 70 1011.9
20260503014719 15 307 14.5 22.5 0.00 0.00 0.00 70 1012.0
20260503012841 16 328 8.0 14.5 0.00 0.00 0.00 69 1012.0
20260503010724 16 292 17.7 20.9 0.00 0.00 0.00 68 1011.9
20260503004718 16 320 8.0 16.1 0.00 0.00 0.00 67 1012.3
20260503003025 16 326 9.7 25.7 0.00 0.00 0.00 66 1012.2
20260503001021 17 311 11.3 20.9 0.00 0.00 0.00 66 1012.2
20260502235023 17 317 4.8 9.7 0.00 0.00 0.00 67 1012.4
20260502232729 18 302 16.1 24.1 0.00 0.00 0.00 65 1012.4
20260502230727 18 306 9.7 16.1 0.00 0.00 0.00 65 1012.6
20260502224718 18 291 17.7 27.4 0.00 0.00 0.00 64 1012.7
20260502223932 18 292 16.1 24.1 0.00 0.00 0.00 65 1013.0
20260502223147 18 318 11.3 17.7 0.00 0.00 0.00 65 1013.3
20260502221125 18 312 9.7 16.1 0.00 0.00 0.00 66 1013.4
20260502215248 18 328 6.4 20.9 0.00 0.00 0.00 66 1013.8
20260502213124 18 315 12.9 14.5 0.00 0.00 0.00 67 1013.6
20260502211739 18 304 14.5 24.1 0.00 0.00 0.00 68 1013.9
20260502205720 17 295 12.9 22.5 0.00 0.00 0.00 70 1014.3
20260502203720 17 293 14.5 24.1 0.00 0.00 0.00 72 1014.4
20260502201721 16 287 8.0 11.3 0.00 0.00 0.00 74 1014.5
20260502195718 16 289 9.7 14.5 0.00 0.00 0.00 74 1014.7
20260502195336 16 321 6.4 12.9 0.00 0.00 0.00 75 1014.7
20260502193332 15 316 8.0 20.9 0.00 0.00 0.00 75 1014.7
20260502191354 15 304 11.3 16.1 0.00 0.00 0.00 76 1014.9
20260502185323 15 292 9.7 14.5 0.00 0.00 0.00 76 1015.0
20260502183322 15 317 8.0 14.5 0.00 0.00 0.00 77 1014.8
20260502181323 15 294 9.7 12.9 0.00 0.00 0.00 78 1014.8